| time (UTC) | temp C | wind direction | speed KPH | gust KPH | rain 1hr cm | rain 24hr cm | rain mn cm | humidity % | barometer mb |
| 20260509111605 | 11 | 0.0 | 0.0 | 0.00 | 0.00 | 0.00 | 82 | 982.9 | |
| 20260509110051 | 11 | 0.0 | 0.0 | 0.00 | 0.00 | 0.00 | 82 | 982.7 | |
| 20260509104549 | 12 | 0.0 | 0.0 | 0.00 | 0.00 | 0.00 | 81 | 982.6 | |
| 20260509103059 | 12 | 0.0 | 0.0 | 0.00 | 0.00 | 0.00 | 80 | 982.7 | |
| 20260509101611 | 12 | 0.0 | 0.0 | 0.00 | 0.00 | 0.00 | 80 | 982.8 | |
| 20260509100041 | 12 | 0.0 | 0.0 | 0.00 | 0.00 | 0.00 | 79 | 982.8 | |
| 20260509094537 | 12 | 0.0 | 0.0 | 0.00 | 0.00 | 0.00 | 77 | 983.1 | |
| 20260509093027 | 12 | 0.0 | 0.0 | 0.00 | 0.00 | 0.00 | 78 | 983.2 | |
| 20260509091535 | 12 | 0.0 | 0.0 | 0.00 | 0.00 | 0.00 | 78 | 983.4 | |
| 20260509090023 | 12 | 0.0 | 0.0 | 0.00 | 0.00 | 0.00 | 78 | 983.4 | |
| 20260509084513 | 12 | 0.0 | 0.0 | 0.00 | 0.00 | 0.00 | 77 | 983.6 | |
| 20260509083012 | 12 | 0.0 | 0.0 | 0.00 | 0.00 | 0.00 | 75 | 983.6 | |
| 20260509081505 | 12 | 0.0 | 0.0 | 0.00 | 0.00 | 0.00 | 72 | 983.8 | |
| 20260509074558 | 12 | 0.0 | 0.0 | 0.00 | 0.00 | 0.00 | 70 | 984.1 | |
| 20260509073104 | 12 | 0.0 | 0.0 | 0.00 | 0.00 | 0.00 | 69 | 984.4 | |
| 20260509071555 | 13 | 0.0 | 0.0 | 0.00 | 0.00 | 0.00 | 68 | 984.9 | |
| 20260509070046 | 13 | 0.0 | 0.0 | 0.00 | 0.00 | 0.00 | 66 | 985.1 | |
| 20260509064543 | 13 | 0.0 | 0.0 | 0.00 | 0.00 | 0.00 | 62 | 985.6 | |
| 20260509063034 | 13 | 0.0 | 0.0 | 0.00 | 0.00 | 0.00 | 59 | 985.9 | |
| 20260509061531 | 12 | 0.0 | 0.0 | 0.00 | 0.00 | 0.00 | 54 | 985.9 | |
| 20260509060029 | 12 | 0.0 | 0.0 | 0.00 | 0.00 | 0.00 | 52 | 986.3 | |
| 20260509054521 | 12 | 0.0 | 0.0 | 0.00 | 0.00 | 0.00 | 51 | 986.4 | |
| 20260509053018 | 12 | 0.0 | 0.0 | 0.00 | 0.00 | 0.00 | 50 | 986.3 | |
| 20260509051513 | 12 | 0.0 | 0.0 | 0.00 | 0.00 | 0.00 | 50 | 986.6 | |
| 20260509050011 | 12 | 0.0 | 0.0 | 0.00 | 0.00 | 0.00 | 50 | 986.7 | |
| 20260509044505 | 12 | 0.0 | 0.0 | 0.00 | 0.00 | 0.00 | 46 | 986.7 | |
| 20260509043104 | 12 | 0.0 | 0.0 | 0.00 | 0.00 | 0.00 | 42 | 986.9 | |
| 20260509041618 | 12 | 0.0 | 0.0 | 0.00 | 0.00 | 0.00 | 37 | 987.1 | |
| 20260509040051 | 12 | 0.0 | 0.0 | 0.00 | 0.00 | 0.00 | 33 | 987.2 | |
| 20260509034546 | 12 | 0.0 | 0.0 | 0.00 | 0.00 | 0.00 | 31 | 987.5 | |
| 20260509033043 | 12 | 0.0 | 0.0 | 0.00 | 0.00 | 0.00 | 30 | 987.6 | |
| 20260509031539 | 12 | 0.0 | 0.0 | 0.00 | 0.00 | 0.00 | 30 | 987.6 | |
| 20260509030034 | 12 | 0.0 | 0.0 | 0.00 | 0.00 | 0.00 | 30 | 987.8 | |
| 20260509024530 | 12 | 0.0 | 0.0 | 0.00 | 0.00 | 0.00 | 33 | 987.9 | |
| 20260509023028 | 12 | 0.0 | 0.0 | 0.00 | 0.00 | 0.00 | 35 | 988.0 | |
| 20260509021523 | 12 | 0.0 | 0.0 | 0.00 | 0.00 | 0.00 | 36 | 988.1 | |
| 20260509020024 | 12 | 0.0 | 0.0 | 0.00 | 0.00 | 0.00 | 35 | 988.0 | |
| 20260509014517 | 12 | 0.0 | 0.0 | 0.00 | 0.00 | 0.00 | 35 | 988.0 | |
| 20260509013017 | 12 | 0.0 | 0.0 | 0.00 | 0.00 | 0.00 | 35 | 988.0 | |
| 20260509011503 | 12 | 0.0 | 0.0 | 0.00 | 0.00 | 0.00 | 34 | 988.0 | |
| 20260509010059 | 13 | 0.0 | 0.0 | 0.00 | 0.00 | 0.00 | 33 | 988.1 | |
| 20260509004556 | 13 | 0.0 | 0.0 | 0.00 | 0.00 | 0.00 | 32 | 988.0 | |
| 20260509003051 | 14 | 0.0 | 0.0 | 0.00 | 0.00 | 0.00 | 31 | 988.0 | |
| 20260509001546 | 14 | 0.0 | 0.0 | 0.00 | 0.00 | 0.00 | 30 | 988.1 | |
| 20260509000042 | 15 | 0.0 | 0.0 | 0.00 | 0.00 | 0.00 | 30 | 988.3 | |
| 20260508234540 | 15 | 0.0 | 0.0 | 0.00 | 0.00 | 0.00 | 30 | 988.4 | |
| 20260508233037 | 15 | 0.0 | 0.0 | 0.00 | 0.00 | 0.00 | 30 | 988.6 | |
| 20260508231529 | 15 | 0.0 | 0.0 | 0.00 | 0.00 | 0.00 | 29 | 988.7 | |
| 20260508230038 | 15 | 0.0 | 0.0 | 0.00 | 0.00 | 0.00 | 29 | 988.9 | |
| 20260508224525 | 16 | 0.0 | 0.0 | 0.00 | 0.00 | 0.00 | 30 | 989.0 | |
| 20260508223016 | 16 | 0.0 | 0.0 | 0.00 | 0.00 | 0.00 | 29 | 989.1 | |
| 20260508221511 | 16 | 0.0 | 0.0 | 0.00 | 0.00 | 0.00 | 29 | 989.1 | |
| 20260508220006 | 16 | 0.0 | 0.0 | 0.00 | 0.00 | 0.00 | 31 | 989.2 | |
| 20260508214509 | 16 | 0.0 | 0.0 | 0.00 | 0.00 | 0.00 | 31 | 989.4 | |
| 20260508213058 | 16 | 0.0 | 0.0 | 0.00 | 0.00 | 0.00 | 29 | 989.4 | |
| 20260508211556 | 16 | 0.0 | 0.0 | 0.00 | 0.00 | 0.00 | 31 | 989.6 | |
| 20260508210050 | 16 | 0.0 | 0.0 | 0.00 | 0.00 | 0.00 | 29 | 989.7 | |
| 20260508204551 | 16 | 0.0 | 0.0 | 0.00 | 0.00 | 0.00 | 28 | 989.9 | |
| 20260508203040 | 16 | 0.0 | 0.0 | 0.00 | 0.00 | 0.00 | 28 | 990.1 | |
| 20260508201538 | 16 | 0.0 | 0.0 | 0.00 | 0.00 | 0.00 | 29 | 990.2 | |
| 20260508200031 | 17 | 0.0 | 0.0 | 0.00 | 0.00 | 0.00 | 30 | 990.3 | |
| 20260508194533 | 17 | 0.0 | 0.0 | 0.00 | 0.00 | 0.00 | 29 | 990.6 | |
| 20260508193023 | 16 | 0.0 | 0.0 | 0.00 | 0.00 | 0.00 | 29 | 990.7 | |
| 20260508191526 | 16 | 0.0 | 0.0 | 0.00 | 0.00 | 0.00 | 28 | 990.9 | |
| 20260508190015 | 16 | 0.0 | 0.0 | 0.00 | 0.00 | 0.00 | 29 | 991.1 | |
| 20260508184510 | 15 | 0.0 | 0.0 | 0.00 | 0.00 | 0.00 | 31 | 991.3 | |
| 20260508183009 | 16 | 0.0 | 0.0 | 0.00 | 0.00 | 0.00 | 30 | 991.4 | |
| 20260508181504 | 16 | 0.0 | 0.0 | 0.00 | 0.00 | 0.00 | 31 | 991.6 | |
| 20260508180057 | 16 | 0.0 | 0.0 | 0.00 | 0.00 | 0.00 | 33 | 991.9 | |
| 20260508174557 | 16 | 0.0 | 0.0 | 0.00 | 0.00 | 0.00 | 35 | 992.1 | |
| 20260508173048 | 15 | 0.0 | 0.0 | 0.00 | 0.00 | 0.00 | 37 | 992.4 | |
| 20260508171544 | 15 | 0.0 | 0.0 | 0.00 | 0.00 | 0.00 | 34 | 992.6 | |
| 20260508170039 | 15 | 0.0 | 0.0 | 0.00 | 0.00 | 0.00 | 35 | 992.8 | |
| 20260508164538 | 15 | 0.0 | 0.0 | 0.00 | 0.00 | 0.00 | 40 | 992.8 | |
| 20260508163031 | 15 | 0.0 | 0.0 | 0.00 | 0.00 | 0.00 | 37 | 993.0 | |
| 20260508161526 | 15 | 0.0 | 0.0 | 0.00 | 0.00 | 0.00 | 34 | 993.0 | |
| 20260508160021 | 15 | 0.0 | 0.0 | 0.00 | 0.00 | 0.00 | 36 | 992.9 | |
| 20260508154538 | 14 | 0.0 | 0.0 | 0.00 | 0.00 | 0.00 | 40 | 992.9 | |
| 20260508153013 | 14 | 0.0 | 0.0 | 0.00 | 0.00 | 0.00 | 41 | 993.1 | |
| 20260508151512 | 13 | 0.0 | 0.0 | 0.00 | 0.00 | 0.00 | 41 | 993.1 | |
| 20260508150005 | 14 | 0.0 | 0.0 | 0.00 | 0.00 | 0.00 | 38 | 993.0 | |
| 20260508144610 | 13 | 0.0 | 0.0 | 0.00 | 0.00 | 0.00 | 43 | 993.1 | |
| 20260508143102 | 13 | 0.0 | 0.0 | 0.00 | 0.00 | 0.00 | 40 | 993.2 | |
| 20260508141559 | 12 | 0.0 | 0.0 | 0.00 | 0.00 | 0.00 | 45 | 993.3 | |
| 20260508140047 | 12 | 0.0 | 0.0 | 0.00 | 0.00 | 0.00 | 48 | 993.2 | |
| 20260508134556 | 11 | 0.0 | 0.0 | 0.00 | 0.00 | 0.00 | 55 | 993.3 | |
| 20260508133049 | 11 | 0.0 | 0.0 | 0.00 | 0.00 | 0.00 | 62 | 993.4 | |
| 20260508131534 | 10 | 0.0 | 0.0 | 0.00 | 0.00 | 0.00 | 67 | 993.6 | |
| 20260508130033 | 8 | 0.0 | 0.0 | 0.00 | 0.00 | 0.00 | 74 | 993.7 | |
| 20260508124530 | 6 | 0.0 | 0.0 | 0.00 | 0.00 | 0.00 | 78 | 993.8 | |
| 20260508123041 | 5 | 0.0 | 0.0 | 0.00 | 0.00 | 0.00 | 82 | 993.7 | |
| 20260508121519 | 4 | 0.0 | 0.0 | 0.00 | 0.00 | 0.00 | 84 | 993.6 | |
| 20260508120012 | 3 | 0.0 | 0.0 | 0.00 | 0.00 | 0.00 | 84 | 993.6 | |
| 20260508114508 | 2 | 0.0 | 0.0 | 0.00 | 0.00 | 0.00 | 88 | 993.4 | |
| 20260508113004 | 1 | 0.0 | 0.0 | 0.00 | 0.00 | 0.00 | 89 | 993.4 |